Commit Graph

  • fb7e9bdca4 dont include groups in JWT dev Nathan Coad 2026-04-21 14:54:19 +10:00
  • 35840697fa improve ldap Nathan Coad 2026-04-21 14:40:10 +10:00
  • 4fca10795e add user/group DNs to config Nathan Coad 2026-04-21 14:24:16 +10:00
  • 14d242c8d1 optimising ldap lookup Nathan Coad 2026-04-21 13:50:07 +10:00
  • a8e38784d9 more ldap logging Nathan Coad 2026-04-21 13:21:32 +10:00
  • d2a7145a4c bugfix ldap Nathan Coad 2026-04-21 13:03:08 +10:00
  • 4b1b985862 update ldap Nathan Coad 2026-04-21 11:00:40 +10:00
  • 361ba7719b more auth logging Nathan Coad 2026-04-21 10:35:10 +10:00
  • 2c3167a1a0 more updates nathan 2026-04-20 19:40:01 +10:00
  • 916b0b5054 more tests nathan 2026-04-20 18:38:12 +10:00
  • 27cab61e89 improve title overflow nathan 2026-04-20 17:10:58 +10:00
  • 11df6e0560 golden parity + lifecycle edge-case coverage in internal/tasks nathan 2026-04-20 17:09:38 +10:00
  • 2e0788caf2 more logging nathan 2026-04-20 16:59:45 +10:00
  • 83bd4b2026 more postgresql type fixes nathan 2026-04-20 16:35:23 +10:00
  • aa0d8099c7 fixed benchmark nathan 2026-04-20 16:24:48 +10:00
  • 8ccf5a7009 enhance utilisation of postgres features nathan 2026-04-20 10:19:27 +10:00
  • 98e92a8264 updated UI nathan 2026-04-17 15:21:27 +10:00
  • 7848557002 update docs nathan 2026-04-17 14:00:48 +10:00
  • ae3e2be89a add auth support nathan 2026-04-17 13:19:08 +10:00
  • 9a561f3b07 cleanups and code fixes incl templ nathan 2026-03-20 13:21:15 +11:00
  • 4fbb2582e3 update and bugfix nathan 2026-03-20 12:49:06 +11:00
  • 3b0dfda992 feat: enhance summary pivot specifications to include column fields nathan 2026-02-27 14:11:02 +11:00
  • 504621f80d Refactor settings handling to support context-based reloading and add utility functions for context management nathan 2026-02-19 11:06:05 +11:00
  • f2d6b3158b Refactor code to use 'any' type and improve context handling nathan 2026-02-18 16:16:27 +11:00
  • 6517a30fa2 Enhance table report creation by reloading settings and ensuring logger initialization nathan 2026-02-18 12:14:20 +11:00
  • dcebd3cf60 Update pivot ranges and add title cells for summary report metrics nathan 2026-02-18 12:02:49 +11:00
  • 29c277f863 Add support for customizable pivot titles and ranges in summary reports nathan 2026-02-18 11:59:22 +11:00
  • 92c6797f05 update pivot table title cell nathan 2026-02-18 11:34:16 +11:00
  • 9419103709 Fix SQL insert statement to properly quote column names in monthly aggregates nathan 2026-02-18 11:19:44 +11:00
  • e4d73ee294 Update pivot table ranges in summary report for accurate data representation nathan 2026-02-16 09:48:52 +11:00
  • 6da2da3e82 Add PostgreSQL checkpoint functionality and update related database operations nathan 2026-02-16 09:21:00 +11:00
  • ff1ec3f4aa postgres fix nathan 2026-02-16 08:56:24 +11:00
  • bc84931c37 Add vCenter cache rebuild functionality and related API endpoint nathan 2026-02-16 08:46:38 +11:00
  • 6fbd6bc9d2 Enhance snapshot handling by backfilling provisioned disk data and updating backfill logic nathan 2026-02-13 16:17:56 +11:00
  • c446638eac Implement targeted VM property refresh and backfill logic for snapshot rows nathan 2026-02-13 16:09:29 +11:00
  • e2779f80c0 Adjust snapshot interval calculations to use one-third of the configured cadence nathan 2026-02-13 15:17:05 +11:00
  • 1f39b46613 Deprecate legacy VM inventory endpoints and add gating logic nathan 2026-02-13 14:59:19 +11:00
  • 18be1fbe06 Add vCenter reference cache tables and update related functions nathan 2026-02-13 14:45:13 +11:00
  • 5cd8f9c2a1 pagination of vcenter queries nathan 2026-02-13 14:04:28 +11:00
  • 1b052b93b6 backfill CreationTime in daily aggregation nathan 2026-02-11 11:50:29 +11:00
  • f1be31781c improve logging nathan 2026-02-11 11:24:27 +11:00
  • 34ac9287b4 fix sql timeout nathan 2026-02-11 11:04:19 +11:00
  • b5bcea9da5 work on daily aggregation with postgresql nathan 2026-02-11 10:48:32 +11:00
  • a0556e3ac8 more db fixes nathan 2026-02-11 10:20:20 +11:00
  • f4d5577de1 add postgres migration nathan 2026-02-11 10:10:54 +11:00
  • ee3b2d7f21 fix postgres code path nathan 2026-02-11 09:54:55 +11:00
  • a09d94a266 improve sqlite import nathan 2026-02-11 08:41:32 +11:00
  • 3e3d8c2eb0 improve postgres support nathan 2026-02-10 19:40:20 +11:00
  • e0cbc20140 potential performance improvements for hourly inventory nathan 2026-02-09 17:13:20 +11:00
  • 24bf74ad34 fix crash again nathan 2026-02-09 16:06:55 +11:00
  • b70dfcf5be fix crash nathan 2026-02-09 15:55:19 +11:00
  • 6dcbb9caef lifecycle diagnostics nathan 2026-02-09 14:27:41 +11:00
  • 59b16db04f speed up vm trace pages nathan 2026-02-09 14:19:24 +11:00
  • c4097ca608 try again nathan 2026-02-09 13:58:06 +11:00
  • 4f4163f77a revert service yaml filename nathan 2026-02-09 13:54:46 +11:00
  • 4d53927f9d debug pipeline nathan 2026-02-09 13:51:16 +11:00
  • 68fcdb8625 fix yml reference nathan 2026-02-09 13:47:04 +11:00
  • 5736dc6929 avoid vcenter totals pages scanning whole database nathan 2026-02-09 13:44:43 +11:00
  • c66679a71f more index cleanups to optimise space nathan 2026-02-08 15:40:42 +11:00
  • a993aedf79 use javascript chart instead of svg nathan 2026-02-06 16:42:48 +11:00
  • 9677d083a8 updated docs nathan 2026-02-06 16:01:01 +11:00
  • 0e3cf5aae9 [ci skip] more suggested improvements nathan 2026-02-06 15:35:18 +11:00
  • dfbaacb6f3 [ci skip] more codex 5.3 improvements nathan 2026-02-06 15:17:38 +11:00
  • dc96431f06 [ci skip] codex 5.3 review nathan 2026-02-06 15:07:44 +11:00
  • 5dcc11e5e0 reduce unnecessary sqlite indexes nathan 2026-02-06 08:53:36 +11:00
  • 32ced35130 more metadata in reports nathan 2026-01-29 12:27:08 +11:00
  • ff783fb45a still working on creation/deletion times nathan 2026-01-28 15:19:10 +11:00
  • 49484900ac sql fix nathan 2026-01-28 13:49:41 +11:00
  • aa6abb8cb2 bugfix hourly totals nathan 2026-01-28 13:27:05 +11:00
  • 1f2783fc86 fix nathan 2026-01-28 13:14:05 +11:00
  • b9eae50f69 updated snapshots logic nathan 2026-01-28 09:47:51 +11:00
  • c566456ebd add configuration for monthly aggregation job timing nathan 2026-01-28 09:04:16 +11:00
  • ee01d8deac improve lifecycle data nathan 2026-01-28 08:49:04 +11:00
  • 93b5769145 improve logging for pro-rata nathan 2026-01-27 21:40:41 +11:00
  • 38480e52c0 improve vm deletion detection Nathan Coad 2026-01-27 14:20:30 +11:00
  • 6981bd9994 even more diagnostics Nathan Coad 2026-01-27 11:21:47 +11:00
  • fe96172253 add diagnostic endpoint Nathan Coad 2026-01-27 11:02:39 +11:00
  • 35b4a50cf6 try to fix pro-rata yet again Nathan Coad 2026-01-27 09:09:24 +11:00
  • 73ec80bb6f update monthly aggregation and docs nathan 2026-01-23 15:35:10 +11:00
  • 0d509179aa update daily aggregation to use hourly intervals nathan 2026-01-23 14:33:22 +11:00
  • e6c7596239 extreme logging nathan 2026-01-23 13:51:03 +11:00
  • b39865325a more logging nathan 2026-01-23 13:44:50 +11:00
  • b4a3c0fb3a in depth fix of deletion/creation data nathan 2026-01-23 13:02:58 +11:00
  • 2caf2763f6 improve aggregation nathan 2026-01-23 12:19:28 +11:00
  • 25564efa54 more accurate resource pool data in aggregation reports nathan 2026-01-23 11:59:52 +11:00
  • 871d7c2024 more logging nathan 2026-01-23 11:02:30 +11:00
  • 3671860b7d another fix to aggregation reports nathan 2026-01-23 10:11:14 +11:00
  • 3e2d95d3b9 fix aggregation logic nathan 2026-01-23 09:38:08 +11:00
  • 8a3481b966 fix creationtime in aggregations nathan 2026-01-23 07:29:59 +11:00
  • 13adc159a2 more accurate deletion times in aggregations nathan 2026-01-22 20:50:29 +11:00
  • c8f04efd51 add more documentation nathan 2026-01-22 20:30:02 +11:00
  • 68ee2838e4 fix deletiontime from event Nathan Coad 2026-01-22 15:13:40 +11:00
  • b0592a2539 fix daily aggregation sample count Nathan Coad 2026-01-22 14:27:27 +11:00
  • baea0cc85c update aggregation calculations Nathan Coad 2026-01-22 13:30:53 +11:00
  • ceadf42048 update godoc Nathan Coad 2026-01-22 12:52:28 +11:00
  • 374d4921e1 update aggregation jobs Nathan Coad 2026-01-22 12:04:41 +11:00
  • 7dc8f598c3 more logging in daily aggregation Nathan Coad 2026-01-22 10:50:03 +11:00
  • 148df38219 fix daily aggregation Nathan Coad 2026-01-22 10:20:18 +11:00
  • 0a2c529111 code refactor nathan 2026-01-21 14:40:37 +11:00
  • 3cdf368bc4 re-apply minimum snapshot interval nathan 2026-01-21 14:17:40 +11:00